When you browse on this site, cookies collect data to enhance your experience and personalize the content and advertising you see.
Visit our Privacy Policy to learn more. By continuing to use the site, you agree to this use of cookies and data.
  • In Schweiz
  • Länderverzeichnis
  • Für 7 Tage
  • Wassertemperatur
  • Wetterkarte
  • Widgets
  • user-avatar
    Anmelden

    Stündliche Wetter Asadabad

    Heute, 14 Oktober, Montag

    Zeit Temperatur Niederschläge Wind Luftdruck Luftfeuchtigkeit
    00:00 +17°C° 0 mm 0 m/S 660 mmHg 53%
    01:00 +19°C° 0 mm 1 m/S 660 mmHg 52%
    02:00 +19°C° 0 mm 1 m/S 660 mmHg 50%
    03:00 +18°C° 0 mm 1 m/S 660 mmHg 48%
    04:00 +18°C° 0 mm 1 m/S 660 mmHg 45%
    05:00 +18°C° 0 mm 1 m/S 660 mmHg 44%
    06:00 +19°C° 0 mm 1 m/S 660 mmHg 39%
    07:00 +21°C° 0 mm 1 m/S 661 mmHg 34%
    08:00 +22°C° 0 mm 1 m/S 662 mmHg 29%
    09:00 +24°C° 0 mm 1 m/S 662 mmHg 28%
    10:00 +25°C° 0 mm 1 m/S 662 mmHg 27%
    11:00 +26°C° 0 mm 1 m/S 662 mmHg 25%
    12:00 +27°C° 0 mm 2 m/S 662 mmHg 25%
    13:00 +27°C° 0 mm 2 m/S 662 mmHg 25%
    14:00 +28°C° 0 mm 2 m/S 661 mmHg 26%
    15:00 +27°C° 0 mm 2 m/S 661 mmHg 28%
    16:00 +27°C° 0 mm 2 m/S 661 mmHg 31%
    17:00 +26°C° 0 mm 1 m/S 661 mmHg 34%
    18:00 +24°C° 0 mm 1 m/S 661 mmHg 39%
    19:00 +22°C° 0 mm 1 m/S 661 mmHg 45%
    20:00 +19°C° 0 mm 0 m/S 661 mmHg 50%
    21:00 +18°C° 0 mm 0 m/S 661 mmHg 50%
    22:00 +20°C° 0 mm 1 m/S 661 mmHg 50%
    23:00 +20°C° 0 mm 1 m/S 661 mmHg 49%

    Morgen, 15 Oktober, Dienstag

    Zeit Temperatur Niederschläge Wind Luftdruck Luftfeuchtigkeit
    00:00 +19°C° 0 mm 1 m/S 661 mmHg 48%
    01:00 +19°C° 0 mm 1 m/S 660 mmHg 46%
    02:00 +19°C° 0 mm 1 m/S 660 mmHg 45%
    03:00 +18°C° 0 mm 1 m/S 660 mmHg 43%
    04:00 +18°C° 0 mm 1 m/S 660 mmHg 40%
    05:00 +18°C° 0 mm 1 m/S 660 mmHg 38%
    06:00 +19°C° 0 mm 1 m/S 660 mmHg 34%
    07:00 +21°C° 0 mm 1 m/S 661 mmHg 29%
    08:00 +22°C° 0 mm 1 m/S 662 mmHg 25%
    09:00 +23°C° 0 mm 1 m/S 662 mmHg 24%
    10:00 +25°C° 0 mm 1 m/S 662 mmHg 23%
    11:00 +26°C° 0 mm 2 m/S 662 mmHg 22%
    12:00 +26°C° 0 mm 2 m/S 662 mmHg 23%
    13:00 +27°C° 0 mm 2 m/S 662 mmHg 23%
    14:00 +27°C° 0 mm 2 m/S 662 mmHg 24%
    15:00 +27°C° 0 mm 2 m/S 662 mmHg 27%
    16:00 +26°C° 0 mm 2 m/S 661 mmHg 30%
    17:00 +26°C° 0 mm 1 m/S 661 mmHg 33%
    18:00 +24°C° 0 mm 1 m/S 661 mmHg 37%
    19:00 +20°C° 0 mm 0 m/S 661 mmHg 42%
    20:00 +18°C° 0 mm 0 m/S 661 mmHg 47%
    21:00 +18°C° 0 mm 0 m/S 661 mmHg 47%
    22:00 +17°C° 0 mm 0 m/S 660 mmHg 47%
    23:00 +17°C° 0 mm 0 m/S 660 mmHg 47%

    übermorgen, 16 Oktober, Mittwoch

    Zeit Temperatur Niederschläge Wind Luftdruck Luftfeuchtigkeit
    00:00 +17°C° 0 mm 0 m/S 660 mmHg 46%
    01:00 +18°C° 0 mm 1 m/S 660 mmHg 45%
    02:00 +18°C° 0 mm 1 m/S 660 mmHg 44%
    03:00 +18°C° 0 mm 1 m/S 659 mmHg 44%
    04:00 +16°C° 0 mm 1 m/S 659 mmHg 43%
    05:00 +16°C° 0 mm 1 m/S 659 mmHg 43%
    06:00 +19°C° 0 mm 1 m/S 660 mmHg 38%
    07:00 +21°C° 0 mm 1 m/S 660 mmHg 34%
    08:00 +23°C° 0 mm 1 m/S 661 mmHg 29%
    09:00 +24°C° 0 mm 1 m/S 661 mmHg 28%
    10:00 +25°C° 0 mm 1 m/S 661 mmHg 26%
    11:00 +26°C° 0 mm 2 m/S 662 mmHg 25%
    12:00 +26°C° 0 mm 2 m/S 661 mmHg 24%
    13:00 +27°C° 0 mm 2 m/S 661 mmHg 24%
    14:00 +27°C° 0 mm 2 m/S 661 mmHg 23%
    15:00 +27°C° 0 mm 2 m/S 660 mmHg 26%
    16:00 +26°C° 0 mm 1 m/S 660 mmHg 30%
    17:00 +25°C° 0 mm 1 m/S 660 mmHg 33%
    18:00 +23°C° 0 mm 1 m/S 660 mmHg 38%
    19:00 +22°C° 0 mm 1 m/S 660 mmHg 44%
    20:00 +18°C° 0 mm 0 m/S 659 mmHg 50%
    21:00 +18°C° 0 mm 0 m/S 659 mmHg 50%
    22:00 +19°C° 0 mm 1 m/S 659 mmHg 50%
    23:00 +19°C° 0 mm 1 m/S 659 mmHg 50%

    17 Oktober, Donnerstag

    Zeit Temperatur Niederschläge Wind Luftdruck Luftfeuchtigkeit
    00:00 +18°C° 0 mm 1 m/S 659 mmHg 49%
    01:00 +18°C° 0 mm 1 m/S 659 mmHg 49%
    02:00 +18°C° 0 mm 1 m/S 659 mmHg 48%
    03:00 +18°C° 0 mm 1 m/S 659 mmHg 47%
    04:00 +18°C° 0 mm 1 m/S 658 mmHg 46%
    05:00 +16°C° 0 mm 1 m/S 658 mmHg 45%
    06:00 +19°C° 0 mm 1 m/S 659 mmHg 42%
    07:00 +20°C° 0 mm 1 m/S 660 mmHg 38%
    08:00 +22°C° 0 mm 1 m/S 661 mmHg 34%
    09:00 +23°C° 0 mm 1 m/S 661 mmHg 33%
    10:00 +24°C° 0 mm 1 m/S 661 mmHg 33%
    11:00 +25°C° 0 mm 1 m/S 661 mmHg 32%
    12:00 +25°C° 0 mm 2 m/S 661 mmHg 31%
    13:00 +26°C° 0 mm 2 m/S 661 mmHg 31%
    14:00 +26°C° 0 mm 3 m/S 660 mmHg 31%
    15:00 +26°C° 0 mm 2 m/S 660 mmHg 34%
    16:00 +25°C° 0 mm 2 m/S 660 mmHg 37%
    17:00 +25°C° 0 mm 2 m/S 660 mmHg 41%
    18:00 +23°C° 0.5 mm 1 m/S 660 mmHg 47%
    19:00 +22°C° 0.5 mm 1 m/S 660 mmHg 53%
    20:00 +20°C° 0.5 mm 1 m/S 660 mmHg 60%
    21:00 +20°C° 0.6 mm 1 m/S 660 mmHg 61%
    22:00 +19°C° 0.6 mm 1 m/S 660 mmHg 61%
    23:00 +18°C° 0.6 mm 2 m/S 660 mmHg 62%

    18 Oktober, Freitag

    Zeit Temperatur Niederschläge Wind Luftdruck Luftfeuchtigkeit
    00:00 +18°C° 0.8 mm 2 m/S 660 mmHg 62%
    01:00 +18°C° 0.8 mm 3 m/S 659 mmHg 62%
    02:00 +17°C° 0.8 mm 3 m/S 659 mmHg 62%
    03:00 +17°C° 0.1 mm 3 m/S 659 mmHg 60%
    04:00 +17°C° 0.1 mm 3 m/S 659 mmHg 59%
    05:00 +17°C° 0.1 mm 3 m/S 659 mmHg 57%
    06:00 +18°C° 0.1 mm 2 m/S 659 mmHg 55%
    07:00 +18°C° 0.1 mm 2 m/S 660 mmHg 53%
    08:00 +18°C° 0.1 mm 2 m/S 660 mmHg 51%
    09:00 +20°C° 0.1 mm 2 m/S 661 mmHg 46%
    10:00 +21°C° 0.1 mm 2 m/S 661 mmHg 41%
    11:00 +23°C° 0.1 mm 1 m/S 662 mmHg 36%
    12:00 +23°C° 0.2 mm 1 m/S 661 mmHg 36%
    13:00 +24°C° 0.2 mm 1 m/S 661 mmHg 36%
    14:00 +24°C° 0.2 mm 1 m/S 661 mmHg 36%
    15:00 +23°C° 0.2 mm 1 m/S 661 mmHg 38%
    16:00 +23°C° 0.2 mm 1 m/S 660 mmHg 41%
    17:00 +23°C° 0.2 mm 1 m/S 660 mmHg 43%
    18:00 +21°C° 0.3 mm 1 m/S 660 mmHg 48%
    19:00 +20°C° 0.3 mm 1 m/S 660 mmHg 54%
    20:00 +19°C° 0.3 mm 1 m/S 660 mmHg 59%
    21:00 +19°C° 0.5 mm 1 m/S 660 mmHg 60%
    22:00 +17°C° 0.5 mm 0 m/S 660 mmHg 62%
    23:00 +17°C° 0.5 mm 0 m/S 660 mmHg 63%

    19 Oktober, Samstag

    Zeit Temperatur Niederschläge Wind Luftdruck Luftfeuchtigkeit
    00:00 +17°C° 0.1 mm 0 m/S 660 mmHg 63%
    01:00 +17°C° 0.1 mm 0 m/S 660 mmHg 64%
    02:00 +16°C° 0.1 mm 0 m/S 660 mmHg 64%
    03:00 +16°C° 0 mm 0 m/S 660 mmHg 64%
    04:00 +18°C° 0 mm 1 m/S 660 mmHg 65%
    05:00 +16°C° 0 mm 1 m/S 660 mmHg 66%
    06:00 +18°C° 0 mm 1 m/S 661 mmHg 62%
    07:00 +16°C° 0 mm 0 m/S 661 mmHg 58%
    08:00 +17°C° 0 mm 0 m/S 662 mmHg 54%
    09:00 +20°C° 0.2 mm 1 m/S 662 mmHg 52%
    10:00 +21°C° 0.2 mm 1 m/S 662 mmHg 50%
    11:00 +21°C° 0.2 mm 2 m/S 662 mmHg 48%
    12:00 +21°C° 0.3 mm 2 m/S 662 mmHg 47%
    13:00 +23°C° 0.3 mm 2 m/S 662 mmHg 45%
    14:00 +23°C° 0.3 mm 2 m/S 661 mmHg 43%
    15:00 +23°C° 0.1 mm 2 m/S 661 mmHg 44%
    16:00 +21°C° 0.1 mm 2 m/S 661 mmHg 46%
    17:00 +21°C° 0.1 mm 2 m/S 661 mmHg 47%
    18:00 +21°C° 0.2 mm 1 m/S 661 mmHg 54%
    19:00 +20°C° 0.2 mm 1 m/S 661 mmHg 60%
    20:00 +17°C° 0.2 mm 0 m/S 660 mmHg 67%
    21:00 +18°C° 0.2 mm 1 m/S 660 mmHg 66%
    22:00 +18°C° 0.2 mm 1 m/S 660 mmHg 66%
    23:00 +18°C° 0.2 mm 1 m/S 660 mmHg 65%
    Mehr zeigen